Montoursville, PA

11:45 AM EST on December 03, 2016 (GMT -0500)
Williamsport Rgnl

Weather History for KIPT - April, 2013

Change the Weather History Date:

Friday, April 19, 2013

  Actual Average Record
Temperature  
Mean Temperature 61 °F 51 °F  
Max Temperature 72 °F 63 °F 91 °F (1976)
Min Temperature 49 °F 40 °F 23 °F (1926)
Degree Days  
Heating Degree Days 4 14  
Month to date heating degree days 281 326  
Since 1 July heating degree days 5317 5622  
Cooling Degree Days 0 0  
Month to date cooling degree days 8 0  
Year to date cooling degree days 8 0  
Growing Degree Days 11 (Base 50)    
Moisture  
Dew Point 55 °F    
Average Humidity 75    
Maximum Humidity 83    
Minimum Humidity 66    
Precipitation  
Precipitation 0.74 in 0.10 in 1.40 in (1998)
Month to date precipitation 2.64 2.08  
Year to date precipitation 8.84 10.09  
Snow  
Snow 0.00 in 0.00 in 2.50 in (1907)
Month to date snowfall 0.0 1.0  
Since 1 July snowfall 32.7 35.9  
Snow Depth 0.00 in    
Sea Level Pressure  
Sea Level Pressure 29.69 in    
Wind  
Wind Speed 13 mph (SSE)    
Max Wind Speed 35 mph    
Max Gust Speed 49 mph    
Visibility 8 miles    
Events Rain    
T = Trace of Precipitation, MM = Missing Value Source: NWS Daily Summary

Daily Weather History Graph

Daily Weather History Graph

Search for Another Location

Airport or City:

Trip Planner

Search our weather history database for the weather conditions in past years. The results will help you decide how hot, cold, wet, or windy it might be!

Date:

Astronomy

Apr. 19, 2013 Rise Set
Actual Time 6:21 AM EDT 7:52 PM EDT
Civil Twilight 5:52 AM EDT 8:21 PM EDT
Nautical Twilight 5:18 AM EDT 8:56 PM EDT
Astronomical Twilight 4:41 AM EDT 9:33 PM EDT
Moon 1:31 PM EDT (4/19) 2:39 AM EDT (4/19)
Length of Visible Light 14h 28m
Length of Day
13h 30m
First Quarter, 61% of the Moon is Illuminated
Apr 19
First Quarter
Apr 25
Full
May 2
Last Quarter
May 9
New
May 18
First Quarter

Hourly Weather History & Observations

Time (EDT) Temp. Dew Point Humidity Pressure Visibility Wind Dir Wind Speed Gust Speed Precip Events Conditions
12:54 AM 62.1 °F 55.0 °F 78% 29.92 in 10.0 mi East 9.2 mph - N/A   Overcast
1:54 AM 62.1 °F 54.0 °F 75% 29.90 in 10.0 mi Variable 4.6 mph - N/A   Overcast
2:54 AM 62.1 °F 55.0 °F 78% 29.87 in 10.0 mi SE 10.4 mph 16.1 mph N/A   Overcast
3:54 AM 62.1 °F 55.0 °F 78% 29.84 in 10.0 mi SE 16.1 mph 27.6 mph N/A   Mostly Cloudy
4:54 AM 63.0 °F 55.9 °F 78% 29.81 in 10.0 mi SSE 15.0 mph 29.9 mph N/A   Scattered Clouds
5:54 AM 63.0 °F 55.9 °F 78% 29.80 in 10.0 mi SE 17.3 mph 33.4 mph N/A   Mostly Cloudy
6:02 AM 62.6 °F 55.4 °F 77% 29.81 in 10.0 mi SE 21.9 mph 29.9 mph N/A   Scattered Clouds
6:30 AM 62.6 °F 55.4 °F 77% 29.81 in 10.0 mi SSE 16.1 mph 35.7 mph N/A   Mostly Cloudy
6:38 AM 62.6 °F 55.4 °F 77% 29.80 in 10.0 mi SSE 16.1 mph 26.5 mph N/A   Scattered Clouds
6:54 AM 63.0 °F 55.9 °F 78% 29.79 in 10.0 mi SE 15.0 mph 29.9 mph N/A   Partly Cloudy
7:54 AM 63.0 °F 55.9 °F 78% 29.78 in 10.0 mi SSE 13.8 mph 33.4 mph N/A   Partly Cloudy
8:33 AM 64.4 °F 55.4 °F 73% 29.78 in 10.0 mi SSE 20.7 mph 31.1 mph N/A   Mostly Cloudy
8:54 AM 64.0 °F 55.9 °F 75% 29.77 in 10.0 mi SE 19.6 mph 28.8 mph N/A   Overcast
9:54 AM 66.0 °F 57.0 °F 73% 29.73 in 10.0 mi SSE 12.7 mph 25.3 mph N/A   Mostly Cloudy
10:03 AM 66.2 °F 55.4 °F 68% 29.72 in 10.0 mi SE 18.4 mph 27.6 mph N/A   Mostly Cloudy
10:22 AM 66.2 °F 55.4 °F 68% 29.73 in 10.0 mi SSE 11.5 mph 32.2 mph N/A   Mostly Cloudy
10:54 AM 68.0 °F 57.0 °F 68% 29.70 in 10.0 mi South 18.4 mph 32.2 mph N/A   Mostly Cloudy
11:54 AM 69.1 °F 57.0 °F 65% 29.67 in 10.0 mi SSE 19.6 mph 38.0 mph N/A   Mostly Cloudy
12:01 PM 69.8 °F 57.2 °F 64% 29.68 in 10.0 mi SSE 17.3 mph 38.0 mph N/A   Mostly Cloudy
12:54 PM 70.0 °F 57.0 °F 63% 29.65 in 10.0 mi SSE 21.9 mph 43.7 mph N/A   Mostly Cloudy
1:54 PM 69.1 °F 59.0 °F 70% 29.60 in 10.0 mi SE 23.0 mph 31.1 mph 0.00 in Rain Light Rain
2:54 PM 72.0 °F 57.9 °F 61% 29.55 in 10.0 mi SSE 11.5 mph 25.3 mph 0.00 in   Mostly Cloudy
3:54 PM 72.0 °F 59.0 °F 64% 29.54 in 10.0 mi SE 11.5 mph 32.2 mph N/A   Overcast
4:54 PM 71.1 °F 60.1 °F 68% 29.51 in 10.0 mi East 8.1 mph 20.7 mph 0.00 in Rain Light Rain
5:28 PM 69.8 °F 60.8 °F 73% 29.52 in 4.0 mi Variable 4.6 mph - 0.07 in Rain Rain
5:39 PM 68.0 °F 62.6 °F 83% 29.53 in 3.0 mi Variable 3.5 mph - 0.11 in Rain Rain
5:43 PM 68.0 °F 62.6 °F 83% 29.52 in 2.5 mi Calm Calm - 0.12 in Rain Heavy Rain
5:54 PM 68.0 °F 62.1 °F 81% 29.51 in 2.5 mi Variable 3.5 mph - 0.21 in Rain Heavy Rain
5:57 PM 66.2 °F 62.6 °F 88% 29.52 in 3.0 mi Calm Calm - 0.02 in Rain Heavy Rain
5:59 PM 66.2 °F 62.6 °F 88% 29.52 in 3.0 mi Variable 3.5 mph - 0.02 in Rain Rain
6:14 PM 64.4 °F 60.8 °F 88% 29.56 in 1.0 mi West 32.2 mph 40.3 mph 0.06 in Rain Heavy Rain
6:25 PM 57.2 °F 55.4 °F 94% 29.59 in 1.5 mi West 31.1 mph 49.5 mph 0.28 in Rain Heavy Rain
6:37 PM 55.4 °F 51.8 °F 88% 29.61 in 3.0 mi West 25.3 mph 44.9 mph 0.44 in Rain Rain
6:54 PM 54.0 °F 48.0 °F 80% 29.62 in 6.0 mi West 20.7 mph 35.7 mph 0.47 in Rain Rain
7:54 PM 51.1 °F 43.0 °F 74% 29.66 in 10.0 mi West 12.7 mph 19.6 mph 0.06 in   Mostly Cloudy
8:54 PM 51.1 °F 43.0 °F 74% 29.70 in 10.0 mi West 11.5 mph - N/A   Mostly Cloudy
9:54 PM 51.1 °F 42.1 °F 71% 29.73 in 10.0 mi West 11.5 mph 17.3 mph N/A   Overcast
10:54 PM 50.0 °F 42.1 °F 74% 29.76 in 10.0 mi West 11.5 mph - N/A   Overcast
11:54 PM 50.0 °F 39.0 °F 66% 29.77 in 10.0 mi West 6.9 mph - 0.00 in   Overcast